Flag for France Weather past 2 weeks in Tours, France

Now
75 °F

Broken clouds.


Feels Like: 78 °F
Forecast: 60 / 80 °F
Wind: 6 mph from North

Location: Tours Airport

Current Time: Jul 26, 2014 at 9:32:11 PM

Latest Report: Jul 26, 2014 at 9:00 PM


Visibility: N/A

Pressure: 30.01 "Hg

Humidity: 57%

Dew point: 59 °F

Location of ToursLocation

Historic Weather in Tours — Graph

°F

Tours temperature yesterday

Maximum temperature yesterday: 82 °F (at 5:00 PM)
Minimum temperature yesterday: 64 °F (at 4:00 AM)
Average temperature yesterday: 74 °F

Past Weeks' High & Low Weather Summary

 TemperatureHumidityPressure
High91 °F (Jul 17, 5:00 PM)100% (Jul 12, 12:30 AM)30.15 "Hg (Jul 12, 12:30 AM)
Low52 °F (Jul 14, 6:30 AM)29% (Jul 24, 7:00 PM)29.74 "Hg (Jul 19, 3:00 AM)
Average71 °F72%29.99 "Hg
* Reported Jul 11 8:00 PM — Jul 26 8:30 PM, Tours, Weather by CustomWeather, © 2014

Note: Actual official high and low records may vary slightly from our data, if they occured in-between our weather recording intervals... More about our weather records

Advertising

Tours weather history for previous 24 hours

 ConditionsComfort  
Time TempWeatherWind HumidityBarometerVisibility
8:30 PM
Jul 26
77 °FBroken clouds.8 mph51%30.01 "HgN/A
8:00 PM77 °FBroken clouds.7 mph54%30.01 "HgN/A
7:30 PM77 °FClear.8 mph51%30.01 "HgN/A
7:00 PM77 °FClear.8 mph51%30.01 "HgN/A
6:30 PM77 °FClear.6 mph51%30.01 "HgN/A
6:00 PM77 °FClear.12 mph51%30.01 "HgN/A
5:30 PM77 °FClear.10 mph47%30.01 "HgN/A
5:00 PM77 °FClear.9 mph47%30.01 "HgN/A
4:30 PM79 °FClear.9 mph45%30.01 "HgN/A
4:00 PM81 °FClear.10 mph45%30.01 "HgN/A
3:30 PM79 °FClear.12 mph45%30.01 "HgN/A
3:00 PM77 °FClear.9 mph47%30.01 "HgN/A
2:30 PM79 °FClear.8 mph42%30.01 "HgN/A
2:00 PM79 °FClear.9 mph45%30.01 "HgN/A
1:30 PM77 °FClear.7 mph44%30.01 "HgN/A
1:00 PM79 °FPassing clouds.7 mph42%30.01 "HgN/A
12:30 PM75 °FScattered clouds.8 mph50%30.01 "HgN/A
12:00 PM77 °FPassing clouds.7 mph44%30.01 "HgN/A
11:30 AM75 °FPassing clouds.7 mph50%30.01 "HgN/A
11:00 AM75 °FClear.7 mph54%30.01 "HgN/A
10:30 AM73 °FClear.6 mph61%30.01 "HgN/A
10:00 AM72 °FClear.3 mph65%30.01 "HgN/A
9:30 AM68 °FClear.5 mph73%30.01 "HgN/A
9:00 AM66 °FClear.5 mph78%29.98 "HgN/A
8:30 AM64 °FClear.6 mph83%29.98 "HgN/A
8:00 AM63 °FSunny.6 mph83%29.98 "Hg10 mi
7:30 AM61 °FSunny.6 mph88%29.98 "Hg10 mi
7:00 AM61 °FClear.5 mph83%29.95 "Hg10 mi
6:30 AM61 °FClear.5 mph88%29.95 "Hg10 mi
6:00 AM63 °FClear.5 mph83%29.95 "Hg10 mi
5:30 AM63 °FClear.3 mph83%29.95 "Hg10 mi
5:00 AM64 °FClear.2 mph78%29.95 "Hg10 mi
4:30 AM64 °FClear.2 mph78%29.95 "HgN/A
4:00 AM66 °FClear.2 mph73%29.95 "HgN/A
3:30 AM66 °FClear.2 mph73%29.95 "HgN/A
3:00 AM64 °FClear.No wind78%29.95 "HgN/A
2:30 AM64 °FClear.No wind73%29.95 "HgN/A
2:00 AM66 °FClear.3 mph68%29.95 "Hg10 mi
1:30 AM66 °FClear.5 mph73%29.95 "Hg10 mi
12:30 AM68 °FClear.6 mph73%29.92 "Hg10 mi
11:30 PM
Jul 25
72 °FClear.5 mph65%29.92 "Hg10 mi
11:00 PM73 °FClear.3 mph61%29.92 "Hg10 mi
10:30 PM75 °FSunny.3 mph54%29.92 "Hg10 mi
10:00 PM75 °FSunny.2 mph54%29.92 "Hg10 mi
9:30 PM79 °FSunny.3 mph48%29.89 "Hg10 mi
9:00 PM79 °FScattered clouds.3 mph45%29.89 "HgN/A
Weather by CustomWeather, © 2014

See weather overviewHow to use our weather pages